sat.trackr.live / text

‹ back to catalog

TIANHUI 7

NORAD 67300 · 2025-314A

PAYLOAD ACTIVE UNKNOWN

§ Identity

Operator
Country
PRC
Launch date
2025-12-30
Launch site
JSC
Launch vehicle
Mass (kg)
RCS (m²)

External: N2YO · Heavens-Above · Gunter

§ Orbital elements

Epoch: 2026-05-25T03:28:31.637568Z

Period
94.39 min
Inclination
97.4016°
Eccentricity
0.0003815
Mean motion
15.25647358 rev/d
Perigee alt
486.2 km
Apogee alt
491.5 km
Semi-major
6,867.0 km
B*
2.2484e-4
RAAN
221.0361°
Arg perigee
45.7489°
Mean anomaly
314.4062°
Rev number
2,227

§ Raw data

TIANHUI 71 67300U 25314A   26145.14481062  .00005649  00000+0  22484-3 0  99912 67300  97.4016 221.0361 0003815  45.7489 314.4062 15.25647358 22273

JSON: /api/v1/satellites/67300 · /tle

For live sub-satellite position, see the globe view (requires WebGL).

§ Visibility from observer

Set your observer location to see the next 7 days of passes ≥ 10°. The values pass through the URL so the page stays shareable.

No JS? Fill the form by hand. The geolocation button needs JavaScript.